Regional Weather Roundup
Issued by NWS Newport/Morehead, NC

Current Version | Previous Version | Text Only | Print | Product List | Glossary On
Versions: 1 2 3 4 5 6 7 8 9 10 11 12 13 14 15 16 17 18 19 20 21 22 23 24 25 26 27 28 29 30 31 32 33 34 35 36 37 38 39 40 41 42 43 44 45 46 47 48 49 50
523 ASUS42 KMHX 231913 RWRMHX WEATHER ROUNDUP FOR EASTERN NORTH CAROLINA NATIONAL WEATHER SERVICE NEWPORT/MOREHEAD CITY NC 300 PM EDT TUE AUG 23 2016 NOTE: "FAIR" INDICATES FEW OR NO CLOUDS BELOW 12,000 FEET WITH NO SIGNIFICANT WEATHER AND/OR OBSTRUCTIONS TO VISIBILITY NCZ015>017-031-032-045>047-102-103-232000- NORTH COAST CITY SKY/WX TMP DP RH WIND PRES REMARKS EDENTON CLOUDY 80 63 56 E5 30.29F ELIZABETH CITY SUNNY 83 59 44 NE14 30.29F KITTY HAWK CLEAR 84 64 51 NE6 30.27F MANTEO SUNNY 80 60 50 NE10G17 30.29F $$ NCZ045>047-081-094-103-104-232000- CENTRAL COAST CITY SKY/WX TMP DP RH WIND PRES REMARKS FRISCO SUNNY 84 62 47 NE12G18 30.27F $$ NCZ095-097-098-100-101-232000- SOUTHERN COAST CITY SKY/WX TMP DP RH WIND PRES REMARKS BEAUFORT MOSUNNY 84 65 52 E10G17 30.25F CEDAR ISLAND NOT AVBL JACKSONVILLE MOSUNNY 85 62 46 NE7 30.25F PINEY ISLAND NOT AVBL WILMINGTON MOSUNNY 85 64 49 E10 30.25F $$ NCZ011>013-027>030-043-044-078>080-089-090>093-098-232000- COASTAL PLAIN CITY SKY/WX TMP DP RH WIND PRES REMARKS AHOSKIE PTSUNNY 80 64 58 NE3 30.29F CLINTON SUNNY 87 65 47 CALM 30.26F ELIZABETHTOWN CLOUDY 85 65 52 CALM 30.25F GOLDSBORO MOSUNNY 88 60 39 E6 30.25F GREENVILLE PTSUNNY 84 63 48 SE7 30.27F HAVELOCK SUNNY 86 65 49 E8 30.27F KENANSVILLE NOT AVBL KINSTON SUNNY 86 61 42 N3 30.27F NEW BERN PTSUNNY 85 64 49 VRB6 30.27F RICHLANDS PTSUNNY 86 63 45 NE7 30.26F ROCKY MOUNT MOSUNNY 88 60 38 VRB7 30.28F WASHINGTON PTSUNNY 81 65 59 CALM 30.27F WHITEVILLE MOSUNNY 88 62 42 E7 30.23F $$ AMZ130-135-150-152-154-156-158-170-250-252-270-ANZ085-086-088-633-658-670-232000- MARINE OBSERVATIONS STATION/POSITION TIME TEMP WIND PRES WAVE SWELL AIR SEA DIR/SP/G HT/PER HT/PER (UTC) (F) (DEG/KT/KT) (MB) (FT/S) (FT/S) CHESAPEAKE LIGHT NOT AVBL 64 E VA BEACH 1850 77 82 10/ 12/ 16 1025.0 3/ 5 2/ 6 DUCK 1800 77 77 20/ 12/ 15 1025.6 2 E DUCK 1811 78 N/A 3/ 5 OREGON INLET 1800 79 78 20/ 11/ 15 1025.7 13E OREGON INLT 1900 78 N/A 3/ 5 2/13 HATTERAS CG 1800 81 80 30/ 11/ 15 1025.1 DIAMOND BUOY 1850 81 85 30/ 16/ 19 1024.5 4/ 8 2/ 8 CAPE LOOKOUT 1900 81 50/ 15/ 16 1024.2 BEAUFORT LAB 1800 82 82 50/ 8/ 11 1024.7 30 SE NEW RVR IN 1808 82 85 50/ 14/ 16 1024.8 30 SE NEW RVR IN 1825 85 N/A 3/ 4 27 SE WRIGHTSVLE 1808 83 85 50/ 12/ 17 1024.9 5 SE WRIGHTSVLE NOT AVBL 225 S CAPE HAT 1850 83 85 40/ 14/ 16 1021.5 4/ 6 2/ 7 41 SE CHARLESTON 1850 83 85 60/ 17/ 21 1022.5 3/ 4 2/ 8 $$

USA.gov is the U.S. government's official web portal to all federal, state and local government web resources and services.